Grand Junction, CO

9:32 AM MST on January 18, 2017 (GMT -0700)
Walker

Weather History for KGJT - April, 2013

Change the Weather History Date:

Saturday, April 6, 2013

  Actual Average Record
Temperature  
Mean Temperature 52 °F 49 °F  
Max Temperature 66 °F 62 °F 80 °F (1959)
Min Temperature 38 °F 35 °F 19 °F (1909)
Degree Days  
Heating Degree Days 13 16  
Month to date heating degree days 71 100  
Since 1 July heating degree days 5483 5132  
Cooling Degree Days 0 0  
Month to date cooling degree days 0 0  
Year to date cooling degree days 0 0  
Growing Degree Days 2 (Base 50)    
Moisture  
Dew Point 28 °F    
Average Humidity 43    
Maximum Humidity 70    
Minimum Humidity 16    
Precipitation  
Precipitation T in 0.03 in 0.83 in (1993)
Month to date precipitation 0.08 0.19  
Year to date precipitation 1.43 2.23  
Snow  
Snow 0.00 in 0.00 in 1.80 in (1921)
Month to date snowfall 0.0 0.3  
Since 1 July snowfall 20.0 18.4  
Snow Depth 0.00 in    
Sea Level Pressure  
Sea Level Pressure 29.86 in    
Wind  
Wind Speed 5 mph (SSW)    
Max Wind Speed 31 mph    
Max Gust Speed 45 mph    
Visibility 10 miles    
Events Rain    
T = Trace of Precipitation, MM = Missing Value Source: NWS Daily Summary

Daily Weather History Graph

Daily Weather History Graph

Search for Another Location

Airport or City:

Trip Planner

Search our weather history database for the weather conditions in past years. The results will help you decide how hot, cold, wet, or windy it might be!

Date:

Astronomy

Apr. 06, 2013 Rise Set
Actual Time 6:50 AM MDT 7:43 PM MDT
Civil Twilight 6:23 AM MDT 8:10 PM MDT
Nautical Twilight 5:51 AM MDT 8:42 PM MDT
Astronomical Twilight 5:17 AM MDT 9:16 PM MDT
Moon 4:34 AM MDT (4/6) 4:16 PM MDT (4/6)
Length of Visible Light 13h 47m
Length of Day
12h 52m
Waning Crescent, 14% of the Moon is Illuminated
Apr 6
Waning Crescent
Apr 10
New
Apr 18
First Quarter
Apr 25
Full
May 2
Last Quarter

Hourly Weather History & Observations

Time (MDT) Temp. Windchill Dew Point Humidity Pressure Visibility Wind Dir Wind Speed Gust Speed Precip Events Conditions
12:53 AM 48.0 °F - 36.0 °F 63% 29.87 in 10.0 mi Calm Calm - N/A   Mostly Cloudy
1:53 AM 42.1 °F 39.2 °F 32.0 °F 67% 29.89 in 10.0 mi ESE 4.6 mph - N/A   Clear
2:53 AM 48.9 °F - 32.0 °F 52% 29.86 in 10.0 mi East 5.8 mph - N/A   Clear
3:53 AM 46.9 °F - 32.0 °F 56% 29.85 in 10.0 mi Calm Calm - N/A   Clear
4:53 AM 45.0 °F - 32.0 °F 60% 29.86 in 10.0 mi Calm Calm - N/A   Clear
5:53 AM 41.0 °F 39.0 °F 30.9 °F 67% 29.90 in 10.0 mi SSE 3.5 mph - N/A   Clear
6:53 AM 39.0 °F - 30.0 °F 70% 29.93 in 10.0 mi Calm Calm - N/A   Clear
7:53 AM 43.0 °F 40.3 °F 30.9 °F 62% 29.94 in 10.0 mi East 4.6 mph - N/A   Clear
8:53 AM 48.0 °F - 32.0 °F 54% 29.94 in 10.0 mi SSE 5.8 mph - N/A   Clear
9:53 AM 52.0 °F - 30.9 °F 45% 29.92 in 10.0 mi SSE 3.5 mph - N/A   Clear
10:53 AM 55.9 °F - 30.0 °F 37% 29.93 in 10.0 mi Calm Calm - N/A   Clear
11:53 AM 57.9 °F - 27.0 °F 31% 29.91 in 10.0 mi Calm Calm - N/A   Clear
12:53 PM 62.1 °F - 26.1 °F 25% 29.88 in 10.0 mi Variable 4.6 mph - N/A   Clear
1:53 PM 63.0 °F - 21.0 °F 20% 29.86 in 10.0 mi Calm Calm - N/A   Clear
2:53 PM 64.9 °F - 19.9 °F 18% 29.80 in 10.0 mi Variable 5.8 mph 18.4 mph N/A   Clear
3:53 PM 64.0 °F - 19.0 °F 18% 29.77 in 10.0 mi Variable 4.6 mph 17.3 mph N/A   Clear
4:53 PM 64.9 °F - 19.0 °F 17% 29.76 in 10.0 mi WNW 8.1 mph - N/A   Clear
5:17 PM 64.4 °F - 17.6 °F 16% 29.87 in 10.0 mi West 11.5 mph 19.6 mph N/A   Clear
5:53 PM 64.0 °F - 18.0 °F 17% 29.76 in 10.0 mi West 9.2 mph - N/A   Overcast
6:53 PM 62.1 °F - 24.1 °F 23% 29.78 in 10.0 mi WNW 18.4 mph - N/A   Overcast
7:53 PM 57.9 °F - 28.9 °F 33% 29.82 in 10.0 mi NW 23.0 mph 28.8 mph N/A   Overcast
8:53 PM 54.0 °F - 35.1 °F 49% 29.86 in 10.0 mi NNW 15.0 mph - 0.00 in Rain Light Rain
9:53 PM 54.0 °F - 34.0 °F 47% 29.85 in 10.0 mi South 3.5 mph - 0.00 in   Overcast
10:53 PM 48.0 °F - 32.0 °F 54% 29.86 in 10.0 mi Calm Calm - N/A   Partly Cloudy
11:53 PM 46.0 °F - 30.9 °F 56% 29.86 in 10.0 mi Calm Calm - N/A   Clear